Regional Weather Roundup
Issued by NWS

Home | Current Version | Previous Version | Graphics & Text | Print | Product List | Glossary On
Versions: 1 2 3 4 5 6 7 8 9 10 11 12 13 14 15 16 17 18 19 20 21 22 23 24 25 26 27 28 29 30 31 32 33 34 35 36 37 38 39 40 41 42 43 44 45 46 47 48 49 50
000
ASUS44 KMEG 050110
RWRTN
TENNESSEE HOURLY STATE WEATHER ROUNDUP
NATIONAL WEATHER SERVICE MEMPHIS TN
700 PM CST SUN DEC 04 2016

TNZ002-004-019-021-049-052-054-088>092-050200-
WEST TENNESSEE

CITY           SKY/WX    TMP DP  RH WIND       PRES   REMARKS
MEMPHIS INTL   CLOUDY    46  43  89 N7        30.03R
NWS MEMPHIS      N/A     45 N/A N/A MISG        N/A
JACKSON        CLOUDY    46  44  93 NW6       30.02S
DYERSBURG      CLOUDY   N/A N/A N/A NW5       30.02S
UNION CITY     MOCLDY    41  41 100 NW6       30.01R
PARIS          CLOUDY    43  41  93 VRB5      30.00S
HUNTINGDON     CLOUDY    45  45 100 W5        30.00S
LEXINGTON      CLOUDY    45  45 100 NW5       30.00R
$$

TNZ008-025-027-028-033-062-065-066-050200-
NORTH MIDDLE TENNESSEE

CITY           SKY/WX    TMP DP  RH WIND       PRES   REMARKS
NASHVILLE      LGT RAIN  48  46  93 CALM      30.00R FOG
PORTLAND       CLOUDY    46  46 100 VRB5      29.98S
CLARKSVILLE    CLOUDY    45  43  93 SW5       30.00R
SMYRNA         LGT RAIN  48  46  93 CALM      30.02R
CROSSVILLE     CLOUDY    46  44  93 VRB6      29.98R FOG
$$

TNZ061-075-076-078-094-096-097-050200-
SOUTH MIDDLE TENNESSEE

CITY           SKY/WX    TMP DP  RH WIND       PRES   REMARKS
FAYETTEVILLE   CLOUDY    48  48 100 S3        29.99R FOG
TULLAHOMA      CLOUDY    46  45  93 SW3       29.99R
WINCHESTER     CLOUDY    46  46 100 S3        30.00R
MCMINNVILLE    CLOUDY    48  48 100 W5        29.99R
COLUMBIA       CLOUDY   N/A N/A N/A CALM      29.98S
SHELBYVILLE    CLOUDY    50  48  93 W3        30.01R
$$

TNZ017-018-042-046-047-050200-
NORTHEAST TENNESSEE

CITY           SKY/WX    TMP DP  RH WIND       PRES   REMARKS
TRI CITIES     LGT RAIN  46  43  89 CALM      29.97S
ELIZABETHTON   DRIZZLE   46  43  87 E7        29.98S
$$

TNZ012-013-036-069-073-074-050200-
CENTRAL EAST TENNESSEE

CITY           SKY/WX    TMP DP  RH WIND       PRES   REMARKS
KNOXVILLE      LGT RAIN  44  43  96 CALM      29.97S FOG
OAK RIDGE      CLOUDY    45  43  93 S3        30.00R
DOWNTOWN KNOXV CLOUDY    46  46 100 CALM      29.99S
GATLINBURG     CLOUDY    43  43 100 CALM      29.98S
MORRISTOWN     CLOUDY    45  45 100 CALM      29.95F
JACKSBORO      CLOUDY    46  45  93 CALM      30.00R FOG
$$

TNZ083-085-099-050200-
SOUTHEAST TENNESSEE

CITY           SKY/WX    TMP DP  RH WIND       PRES   REMARKS
CHATTANOOGA    DRIZZLE   47  45  93 SW5       30.01S FOG
$$

SKY/WX REPORTED AS FAIR MEANS FEW OR NO CLOUDS BELOW
12 THOUSAND FEET.




USA.gov is the U.S. government's official web portal to all federal, state and local government web resources and services.